Wind_Speed
42 41 38 34 33 32 33 34 35 32 33 34 32 32 29 26 24 21 16 17 15 13 12 12 9 6 4 2 2 2 2 2 2 3 7 8 10 11 10 9 8 9 8 8 9 11 13 13 13
45 41 41 40 37 33 31 36 34 33 33 32 34 35 32 32 28 25 21 22 18 16 14 12 10 6 6 8 5 4 3 2 2 3 5 6 8 8 8 6 5 6 7 7 8 9 10 11 12
49 45 45 46 41 36 34 36 35 34 32 33 35 35 36 36 33 29 27 24 22 20 20 17 13 10 6 7 8 7 5 3 1 2 3 4 5 5 4 4 4 5 6 8 9 9 10 11 11
53 50 47 48 44 37 40 38 36 37 34 32 32 37 37 39 37 34 30 29 27 25 22 19 16 11 8 8 7 6 4 3 1 1 3 4 4 2 2 2 4 5 6 8 10 11 11 11 12
59 56 51 50 48 44 39 41 40 40 38 34 33 35 39 40 40 39 35 33 33 30 27 24 22 17 12 11 10 8 4 2 2 2 4 5 5 5 3 1 2 4 7 9 11 11 11 12 13
60 58 54 51 47 48 45 44 43 42 41 39 38 37 37 39 41 41 41 39 36 33 30 29 27 24 20 17 15 14 10 5 4 4 5 6 6 6 5 5 5 7 9 10 10 11 12 13 14
59 59 56 53 51 54 50 47 42 44 41 40 39 43 39 38 41 41 42 43 41 39 36 33 32 29 25 20 17 17 16 13 9 7 6 8 9 9 8 8 8 9 10 10 10 10 12 13 14
51 55 57 53 54 54 52 46 43 43 45 42 38 42 40 41 40 40 41 45 45 43 41 38 35 31 27 24 20 20 16 16 15 11 7 8 10 11 11 10 11 12 11 11 11 12 13 13 13
46 48 54 49 53 52 52 49 45 43 42 45 42 40 40 40 40 42 43 42 47 44 43 40 37 30 26 25 24 22 22 19 18 16 13 15 13 13 15 14 13 12 12 13 13 14 14 13 13
42 45 43 48 50 44 45 48 47 48 43 45 44 43 42 40 40 36 37 41 44 42 44 39 35 34 30 30 28 24 25 24 24 22 21 21 22 20 17 17 17 15 15 14 15 15 15 15 15
33 39 41 43 43 44 47 48 44 49 47 47 47 40 40 41 40 40 40 39 38 45 44 43 36 34 34 35 31 29 27 27 28 27 24 24 23 22 21 20 20 19 20 19 19 20 19 17 16
29 32 35 38 42 44 41 45 44 46 46 45 46 47 48 48 49 46 42 41 41 42 42 44 43 40 37 36 36 34 33 33 32 30 28 27 26 25 25 24 24 25 24 24 24 25 25 22 20
31 32 33 34 34 34 37 37 38 42 44 43 46 47 49 48 50 51 51 50 49 47 48 47 46 47 44 41 39 38 39 39 39 36 33 32 31 31 30 30 29 29 29 29 28 28 29 28 25
35 35 36 35 35 35 35 35 38 41 44 44 44 46 48 51 50 53 55 54 52 52 51 52 50 48 48 48 44 44 41 39 36 37 38 38 40 41 40 37 37 35 35 33 34 32 33 32 31
36 38 40 41 40 38 38 38 38 40 43 44 49 48 49 50 52 52 53 55 54 52 51 54 55 52 52 55 50 46 47 50 47 46 46 43 44 49 48 50 43 39 43 39 35 36 37 38 35
29 32 35 40 40 41 41 40 43 42 43 45 47 49 49 51 54 55 53 55 55 56 56 52 53 54 56 53 52 52 51 50 48 47 47 50 50 48 46 50 49 42 46 41 39 40 38 40 41
27 29 31 34 32 34 36 38 43 43 45 46 47 49 51 53 54 54 55 56 57 59 58 58 56 54 54 56 55 51 47 47 48 48 49 57 54 53 51 53 54 54 50 44 45 44 43 43 42
26 25 27 29 31 33 35 37 36 39 42 45 47 49 52 54 55 56 57 59 60 61 61 61 60 59 58 55 53 50 48 49 50 47 51 53 52 59 59 61 59 61 47 56 54 53 47 47 47
26 27 29 31 32 34 33 36 37 37 41 43 44 48 51 54 57 60 60 60 61 62 63 63 63 61 61 59 56 53 46 47 51 48 47 49 54 54 54 62 51 63 60 55 52 50 49 49 47
31 34 34 36 38 40 38 40 40 36 35 37 39 44 48 53 57 58 60 62 62 62 63 64 65 65 65 64 60 55 49 46 52 51 54 51 50 49 55 57 50 53 65 65 56 53 54 56 52
21 23 25 27 31 30 33 33 30 34 34 35 39 43 46 48 52 59 62 63 63 64 65 66 67 68 67 65 64 61 56 50 49 53 50 51 53 49 47 48 48 58 58 62 59 61 58 60 58
24 27 28 29 33 32 38 37 33 36 36 38 38 42 42 45 49 55 58 63 67 66 66 66 66 66 68 70 70 67 60 55 59 49 53 56 47 47 49 46 48 58 56 47 50 54 58 55 56
27 28 31 33 35 39 33 43 41 39 40 41 44 46 48 51 52 52 55 58 63 65 69 66 66 66 65 66 68 67 67 67 62 53 56 57 54 55 52 51 49 47 46 49 51 50 48 46 52
29 30 33 34 36 40 36 43 44 40 43 49 47 48 49 50 55 60 60 60 61 64 67 69 71 68 67 67 67 66 62 61 62 63 66 67 66 61 53 55 55 55 53 48 53 51 51 55 54
29 32 33 34 29 31 29 47 43 47 50 48 52 52 51 54 52 57 65 68 67 66 69 70 71 72 69 68 67 65 64 64 61 57 62 67 65 55 54 58 61 60 57 54 54 55 54 55 55
34 29 33 39 39 41 40 47 38 47 53 50 55 56 54 44 42 50 63 67 67 66 63 68 71 69 69 66 62 59 59 61 60 61 62 60 61 58 59 61 64 61 59 57 54 52 50 51 51
35 29 32 38 40 45 42 44 47 45 46 47 48 48 44 43 40 46 57 62 54 52 50 54 62 65 62 61 56 54 54 54 53 54 58 59 59 60 60 58 57 57 56 55 54 51 49 51 49
28 33 33 37 40 42 39 42 34 32 29 40 33 30 38 38 36 37 46 51 54 50 49 50 56 59 61 59 57 56 54 52 53 55 58 61 60 61 57 57 56 55 56 56 54 52 49 48 48
31 28 33 36 38 40 43 39 34 31 30 35 32 34 36 38 40 38 42 45 52 52 49 46 46 54 61 62 61 60 59 60 60 55 55 57 59 59 56 55 58 58 55 53 52 52 51 49 46
25 29 33 36 34 34 31 27 29 26 31 36 32 33 37 45 51 47 43 45 44 50 50 46 46 49 53 62 61 60 60 61 59 57 57 53 57 59 59 58 55 55 56 53 52 52 52 50 46
Wind_Direction
225 229 228 223 222 224 228 230 232 225 224 227 224 231 233 230 229 223 216 231 226 220 232 202 192 208 227 268 198 181 190 220 168 112 96 97 87 80 70 59 51 40 30 26 25 25 27 20 14
229 230 230 229 223 222 229 230 230 228 227 227 229 231 238 231 233 236 236 233 236 230 227 211 193 185 187 204 202 196 184 181 170 112 102 100 89 85 84 74 49 25 15 15 21 25 26 18 14
229 231 230 230 224 220 224 227 228 229 226 225 227 231 235 237 237 239 241 237 240 243 237 230 210 201 189 206 183 193 186 178 194 144 113 100 95 90 75 54 42 15 2 353 5 15 15 11 11
230 230 231 228 227 224 225 231 228 227 227 225 224 228 232 236 237 240 238 236 239 244 242 245 232 219 220 234 211 198 183 169 188 214 178 159 139 128 100 56 16 353 342 342 344 352 3 5 2
233 231 234 232 228 228 228 231 231 228 228 224 223 225 230 234 237 241 236 236 243 244 244 245 253 245 229 237 253 240 226 248 210 211 206 202 190 187 195 230 312 324 325 332 332 342 350 350 353
231 230 230 233 233 234 232 229 235 235 231 225 223 223 226 233 237 240 240 240 242 246 245 250 249 253 235 237 249 259 268 262 215 226 222 227 239 239 229 248 277 302 311 315 318 326 336 343 345
230 233 232 235 238 239 237 232 233 239 238 235 232 227 224 224 230 236 240 241 242 245 245 246 250 250 247 240 241 252 259 259 261 254 238 236 232 240 245 255 267 281 286 293 299 310 322 330 332
231 233 233 235 237 243 239 237 240 241 239 240 238 238 237 231 224 230 236 242 241 243 245 247 247 248 243 242 240 248 251 255 250 256 255 261 258 247 239 246 265 270 274 276 283 288 298 312 323
232 233 232 237 239 243 245 244 239 241 245 242 240 243 243 244 240 232 232 236 243 242 244 244 247 241 238 238 242 246 251 249 248 253 262 271 273 254 249 253 250 254 257 267 275 282 291 303 315
233 235 236 237 242 241 244 247 248 239 239 239 238 237 238 237 243 249 248 240 237 246 249 245 239 242 237 235 240 240 242 248 245 249 256 267 273 270 264 261 250 250 249 259 269 276 282 290 299
229 234 236 238 240 238 241 246 246 251 243 244 245 243 246 247 247 246 247 251 256 239 242 251 241 231 237 241 239 243 239 238 238 243 250 253 259 264 263 267 250 249 247 256 265 269 274 281 287
228 229 232 236 239 244 241 242 244 252 253 251 253 250 252 252 253 250 248 248 249 255 251 243 247 244 237 237 239 240 239 237 230 235 238 247 246 249 255 253 257 250 249 254 262 269 275 280 281
233 233 236 237 240 241 243 240 239 243 245 243 245 245 248 246 246 246 245 246 247 248 251 252 243 244 244 242 235 237 238 229 230 226 234 236 240 241 242 245 245 251 250 254 251 259 267 270 275
234 237 239 240 240 239 239 237 237 238 245 245 244 245 247 250 246 245 245 246 244 244 248 250 252 249 243 240 228 234 234 240 228 232 239 240 236 224 229 232 234 238 242 249 249 252 257 261 267
233 236 239 241 242 243 244 243 241 237 240 243 247 246 247 250 252 252 250 250 252 248 240 240 242 243 239 240 239 241 246 237 238 242 240 236 240 248 254 229 225 231 239 244 247 249 257 259 263
239 242 244 245 247 247 246 246 250 245 244 245 246 247 248 249 252 252 250 252 252 252 256 252 246 244 246 236 234 240 241 243 238 239 241 242 240 242 246 247 254 242 244 243 252 250 265 269 272
239 240 243 251 248 250 251 249 250 251 249 247 247 248 250 250 252 255 255 253 251 253 255 256 256 254 249 245 251 255 255 255 257 259 251 252 249 241 243 247 246 247 244 249 254 255 257 256 261
244 248 251 252 254 253 254 253 249 250 251 250 249 248 250 251 251 251 251 252 252 254 255 254 256 257 258 258 255 253 254 253 255 252 243 249 246 252 237 245 247 249 243 259 246 246 251 254 256
253 256 259 259 259 258 257 257 255 249 251 250 247 245 245 247 248 250 250 249 248 249 251 255 257 258 260 260 260 260 258 255 254 250 250 249 246 252 250 261 246 245 254 248 249 248 252 255 261
255 258 260 262 264 265 266 263 264 262 258 258 254 250 246 244 246 246 249 251 252 251 251 251 253 254 256 258 259 259 255 252 248 251 248 247 245 249 252 256 250 253 250 244 249 252 256 258 262
258 258 259 261 264 267 267 264 270 268 265 263 260 258 256 255 249 247 246 247 248 250 251 249 249 251 253 255 256 257 257 251 249 252 260 253 250 252 253 254 256 254 258 250 244 254 256 262 261
264 262 263 262 262 264 268 271 267 272 272 274 274 269 261 258 256 252 251 249 246 244 247 249 250 250 250 251 253 255 253 253 240 249 250 248 231 249 255 250 248 249 256 262 260 257 256 265 272
267 269 269 270 269 269 269 278 276 268 274 274 265 263 264 264 261 257 253 250 249 250 246 245 247 248 250 252 254 253 252 251 257 249 247 247 245 245 247 251 257 254 257 259 262 264 262 263 272
273 273 274 276 276 274 283 270 276 285 276 269 273 272 271 266 264 264 260 253 251 249 247 247 244 245 245 248 250 254 255 254 252 250 250 240 241 243 247 253 260 267 268 257 258 263 264 267 270
276 280 281 277 276 282 277 282 288 285 283 288 286 281 277 275 268 259 256 258 254 249 248 245 245 242 242 243 244 247 251 253 255 255 254 255 242 242 248 257 253 263 262 261 260 261 264 267 268
280 277 277 281 282 279 279 285 291 293 292 293 289 287 285 280 266 255 249 248 251 250 247 243 241 239 239 239 241 242 244 247 248 250 251 253 257 256 254 252 254 257 258 257 258 260 260 262 266
275 275 278 280 284 287 295 296 296 295 297 291 289 285 282 273 267 259 248 246 248 251 246 246 245 240 236 239 238 237 239 240 242 244 244 244 246 249 250 251 251 252 252 253 256 258 260 260 264
276 283 288 290 291 292 291 292 301 295 295 292 293 297 286 276 267 260 248 248 245 239 243 243 241 240 238 235 237 238 239 237 237 234 238 241 242 245 247 249 249 248 248 250 254 257 258 259 260
286 288 289 289 290 292 295 296 288 292 284 283 292 299 294 275 266 259 253 249 237 239 244 244 243 242 240 236 235 236 235 233 234 233 231 236 241 245 247 248 250 251 251 252 254 255 257 259 261
285 287 290 293 297 296 297 308 302 292 289 289 292 291 296 276 253 249 251 250 244 238 238 241 242 239 238 239 238 236 231 232 231 235 234 236 238 242 246 247 248 248 248 248 250 252 254 257 258
Height
5858 5861 5865 5869 5875 5876 5879 5879 5879 5884 5886 5889 5892 5894 5896 5898 5902 5906 5905 5905 5907 5910 5911 5909 5909 5910 5910 5911 5911 5912 5912 5912 5911 5911 5910 5910 5909 5909 5910 5912 5913 5913 5914 5913 5912 5911 5909 5909 5908
5852 5855 5859 5863 5867 5872 5875 5872 5875 5878 5881 5886 5888 5891 5894 5894 5897 5899 5902 5902 5904 5906 5908 5909 5908 5908 5908 5909 5910 5910 5911 5911 5910 5910 5910 5910 5909 5910 5910 5911 5912 5913 5913 5912 5911 5911 5910 5909 5908
5844 5848 5852 5854 5858 5865 5867 5866 5868 5871 5875 5879 5883 5886 5888 5889 5891 5895 5897 5899 5901 5903 5905 5907 5907 5907 5908 5908 5907 5907 5908 5909 5909 5909 5910 5910 5910 5910 5911 5912 5912 5912 5912 5912 5911 5910 5909 5908 5908
5836 5840 5843 5847 5853 5858 5858 5860 5862 5864 5868 5873 5878 5880 5882 5883 5886 5888 5892 5894 5896 5899 5901 5905 5906 5906 5907 5908 5907 5906 5906 5906 5907 5907 5908 5908 5909 5910 5910 5911 5912 5911 5911 5911 5910 5909 5908 5907 5907
5827 5830 5834 5838 5845 5847 5851 5852 5854 5857 5861 5866 5871 5873 5875 5877 5880 5883 5886 5889 5891 5893 5897 5900 5903 5905 5905 5906 5906 5905 5905 5905 5905 5905 5906 5907 5907 5908 5909 5909 5910 5910 5910 5910 5909 5908 5907 5906 5906
5817 5822 5825 5830 5838 5836 5841 5843 5848 5851 5854 5859 5863 5866 5870 5874 5876 5877 5880 5883 5886 5889 5891 5895 5898 5901 5902 5903 5903 5904 5905 5904 5903 5904 5904 5905 5906 5907 5907 5908 5909 5909 5909 5908 5907 5907 5906 5905 5905
5808 5814 5820 5825 5827 5823 5829 5837 5842 5842 5849 5852 5855 5858 5863 5866 5869 5873 5875 5878 5881 5884 5887 5888 5892 5894 5898 5900 5900 5900 5902 5904 5903 5902 5902 5903 5903 5905 5905 5906 5907 5906 5906 5906 5905 5905 5905 5905 5904
5801 5805 5811 5815 5817 5818 5820 5831 5836 5840 5840 5846 5850 5850 5854 5860 5863 5867 5870 5872 5874 5878 5880 5883 5886 5889 5891 5894 5896 5897 5898 5899 5901 5901 5900 5901 5902 5902 5902 5903 5904 5904 5904 5904 5903 5903 5902 5902 5901
5794 5799 5804 5810 5808 5810 5816 5822 5827 5833 5837 5838 5843 5846 5849 5854 5856 5859 5863 5866 5869 5870 5873 5877 5881 5883 5886 5889 5891 5893 5895 5895 5896 5896 5897 5897 5898 5899 5900 5901 5901 5901 5901 5901 5901 5900 5901 5900 5899
5788 5793 5799 5798 5800 5807 5812 5816 5819 5823 5828 5831 5835 5837 5840 5846 5850 5853 5856 5860 5863 5866 5868 5871 5874 5878 5881 5883 5885 5887 5889 5891 5892 5892 5892 5893 5894 5895 5896 5897 5898 5898 5899 5898 5899 5898 5897 5897 5897
5783 5789 5791 5795 5795 5799 5806 5807 5813 5814 5821 5826 5827 5831 5834 5839 5844 5847 5850 5854 5856 5859 5862 5866 5869 5872 5874 5877 5879 5881 5884 5885 5886 5887 5888 5888 5889 5890 5891 5892 5893 5894 5895 5895 5895 5895 5895 5894 5894
5779 5782 5786 5787 5790 5795 5800 5802 5805 5807 5813 5815 5819 5824 5827 5831 5835 5839 5842 5845 5848 5852 5854 5859 5862 5865 5868 5870 5873 5875 5877 5879 5880 5881 5882 5883 5885 5886 5887 5887 5889 5889 5889 5891 5892 5892 5892 5891 5891
5773 5777 5781 5784 5787 5789 5791 5797 5798 5801 5803 5806 5808 5812 5815 5821 5826 5830 5833 5835 5839 5843 5847 5850 5852 5856 5860 5862 5866 5868 5870 5870 5872 5873 5875 5877 5878 5880 5880 5881 5882 5883 5884 5885 5885 5886 5887 5887 5887
5768 5771 5774 5777 5779 5783 5786 5789 5791 5794 5794 5798 5801 5802 5806 5807 5815 5819 5821 5826 5831 5836 5838 5842 5845 5846 5850 5852 5856 5857 5860 5861 5860 5866 5869 5870 5869 5868 5869 5873 5874 5876 5877 5877 5879 5879 5881 5882 5881
5761 5764 5767 5769 5773 5778 5780 5784 5786 5788 5788 5792 5793 5796 5798 5799 5802 5808 5813 5815 5819 5825 5828 5833 5836 5839 5841 5843 5846 5848 5850 5853 5857 5859 5862 5862 5862 5864 5864 5861 5863 5866 5869 5869 5872 5874 5875 5876 5875
5756 5759 5761 5762 5767 5770 5774 5779 5778 5781 5783 5785 5788 5789 5791 5792 5792 5794 5802 5804 5806 5809 5813 5821 5825 5829 5831 5833 5836 5837 5839 5843 5846 5849 5852 5854 5853 5854 5854 5858 5861 5859 5862 5862 5864 5867 5867 5870 5870
5750 5753 5756 5757 5760 5762 5766 5769 5769 5771 5774 5777 5780 5780 5782 5783 5785 5786 5788 5792 5796 5799 5803 5806 5811 5815 5819 5822 5825 5827 5830 5833 5835 5837 5839 5843 5842 5843 5846 5847 5849 5851 5852 5855 5857 5859 5860 5861 5862
5744 5747 5749 5750 5752 5754 5756 5758 5761 5761 5763 5766 5769 5771 5772 5773 5775 5777 5778 5779 5783 5785 5789 5794 5797 5800 5805 5809 5814 5818 5821 5824 5825 5828 5831 5833 5834 5831 5832 5836 5841 5842 5844 5845 5845 5848 5850 5852 5855
5738 5740 5740 5742 5744 5745 5748 5748 5750 5752 5753 5755 5757 5757 5759 5759 5762 5762 5765 5767 5771 5775 5779 5781 5785 5790 5792 5796 5802 5806 5812 5815 5815 5817 5818 5821 5823 5824 5825 5826 5831 5833 5835 5836 5839 5840 5841 5844 5846
5733 5733 5735 5734 5734 5734 5737 5736 5738 5743 5746 5746 5746 5745 5745 5749 5750 5752 5754 5757 5759 5763 5767 5770 5774 5777 5780 5784 5789 5794 5799 5802 5802 5803 5807 5811 5812 5815 5818 5819 5823 5824 5823 5826 5830 5834 5836 5836 5838
5727 5727 5728 5729 5727 5728 5726 5728 5731 5730 5731 5733 5732 5734 5736 5739 5741 5741 5741 5743 5745 5748 5751 5755 5759 5763 5766 5771 5775 5778 5784 5790 5793 5796 5797 5800 5803 5805 5807 5810 5810 5812 5813 5815 5820 5823 5825 5828 5828
5721 5720 5721 5722 5721 5723 5718 5720 5724 5722 5721 5721 5721 5721 5723 5724 5725 5729 5729 5731 5733 5733 5734 5738 5743 5747 5751 5755 5759 5765 5773 5777 5780 5782 5785 5785 5785 5792 5795 5800 5803 5806 5806 5809 5813 5815 5816 5816 5817
5715 5715 5714 5714 5714 5712 5718 5709 5710 5713 5713 5711 5708 5706 5707 5707 5709 5712 5713 5714 5717 5720 5722 5723 5726 5731 5737 5739 5744 5750 5757 5763 5766 5769 5772 5775 5778 5782 5785 5789 5793 5796 5799 5800 5801 5804 5807 5807 5807
5707 5707 5706 5706 5706 5704 5707 5702 5701 5703 5699 5694 5696 5696 5695 5695 5695 5693 5693 5694 5700 5701 5704 5707 5712 5716 5720 5724 5729 5733 5741 5746 5750 5757 5759 5759 5762 5768 5774 5779 5780 5782 5785 5789 5791 5793 5796 5798 5798
5699 5699 5699 5698 5698 5697 5696 5687 5691 5685 5679 5679 5675 5677 5675 5674 5674 5675 5672 5674 5679 5681 5684 5688 5694 5700 5704 5708 5714 5721 5726 5731 5735 5741 5743 5743 5748 5754 5761 5766 5769 5772 5775 5776 5780 5784 5787 5787 5788
5689 5693 5690 5685 5687 5687 5686 5679 5681 5671 5665 5661 5656 5654 5652 5653 5652 5652 5653 5655 5656 5660 5666 5671 5676 5682 5686 5691 5698 5704 5711 5715 5722 5725 5729 5732 5735 5740 5745 5751 5756 5761 5764 5767 5770 5772 5775 5776 5779
5683 5686 5683 5679 5678 5672 5672 5668 5665 5657 5654 5647 5644 5642 5641 5639 5638 5637 5637 5639 5641 5645 5648 5652 5659 5666 5671 5677 5682 5688 5695 5700 5706 5711 5716 5720 5724 5726 5732 5740 5744 5748 5752 5755 5758 5761 5764 5766 5769
5677 5674 5674 5670 5666 5663 5663 5660 5657 5649 5644 5636 5635 5632 5629 5627 5625 5625 5626 5625 5628 5632 5634 5637 5641 5647 5656 5662 5668 5675 5681 5686 5691 5697 5703 5706 5711 5715 5721 5726 5731 5736 5740 5745 5748 5751 5753 5756 5761
5667 5668 5665 5662 5658 5652 5650 5653 5642 5641 5634 5630 5627 5624 5619 5616 5615 5614 5614 5614 5615 5619 5621 5623 5627 5632 5639 5646 5654 5660 5667 5673 5678 5683 5688 5693 5700 5704 5709 5714 5718 5723 5728 5733 5736 5739 5742 5745 5748
5663 5659 5656 5651 5650 5644 5642 5640 5633 5631 5626 5621 5618 5613 5608 5602 5599 5599 5601 5603 5604 5606 5608 5611 5614 5618 5623 5630 5638 5646 5653 5657 5663 5669 5675 5681 5687 5693 5698 5702 5706 5710 5715 5721 5725 5728 5731 5735 5739